Regional Weather Roundup
Issued by NWS

Home | Current Version | Previous Version | Graphics & Text | Print | Product List | Glossary On
Versions: 1 2 3 4 5 6 7 8 9 10 11 12 13 14 15 16 17 18 19 20 21 22 23 24 25 26 27 28 29 30 31 32 33 34 35 36 37 38 39 40 41 42 43 44 45 46 47 48 49 50
000
ASUS43 KMPX 121410
RWRMN
WEATHER ROUNDUP FOR MINNESOTA
NATIONAL WEATHER SERVICE TWIN CITIES/CHANHASSEN MN
800 AM CST TUE DEC 12 2017


NOTE: "FAIR" INDICATES FEW OR NO CLOUDS BELOW 12,000 FEET WITH NO
SIGNIFICANT WEATHER AND/OR OBSTRUCTIONS TO VISIBILITY. N/A MEANS
CURRENT SKY AND/OR WEATHER CONDITIONS ARE NOT AVAILABLE.

MNZ060>063-068>070-121500-
   Twin Cities Metro

CITY           SKY/WX    TMP DP  RH WIND       PRES   REMARKS
TWIN CITIES    CLOUDY     7   3  84 W7        30.23S WCI  -5
ST PAUL        CLOUDY     7   1  76 NW9       30.24S WCI  -7
CRYSTAL        CLOUDY     6  -1  73 W5        30.21S WCI  -3
BLAINE         PTCLDY     5   1  85 W6        30.20F WCI  -6
LAKEVILLE      CLOUDY     5   1  85 W8        30.21S WCI  -8
EDEN PRAIRIE   CLOUDY     9   3  77 W5        30.21F WCI   1
SOUTH ST PAUL  CLOUDY     8   2  76 NW3       30.22S
LAKE ELMO      FAIR       5   1  85 NW6       30.21S WCI  -6
$$
MNZ001>005-007-008-013>017-022>024-027-028-121500-
   Northwest Minnesota

CITY           SKY/WX    TMP DP  RH WIND       PRES   REMARKS
BEMIDJI        CLOUDY     6   3  87 S3        30.06F
HALLOCK        CLOUDY    18  16  93 S14       30.00F WCI   4
ROSEAU         LGT SNOW   9   5  85 SE5       30.04F WCI   0
WARROAD        CLOUDY     5   1  85 SE5       30.04F WCI  -4
THIEF RVR FALL LGT SNOW  14  12  92 S12       30.05F FOG     WCI   0
CROOKSTON      CLOUDY    16  14  93 S10       30.07F WCI   3
FOSSTON        CLOUDY    10   9  92 S10       30.05F FOG     WCI  -3
DETROIT LAKES  CLOUDY    18  14  86 S7        30.08F WCI   8
MOORHEAD       CLOUDY    18  14  86 S8        30.10F WCI   7
PARK RAPIDS    CLOUDY     8   4  83 S6        30.08F WCI  -2
MAHNOMEN       CLOUDY    14  11  87 S10       30.06F WCI   1
$$
MNZ006-009>011-018-025>026-121500-
   North Central Minnesota

CITY           SKY/WX    TMP DP  RH WIND       PRES   REMARKS
BAUDETTE       CLOUDY     2  -1  88 SE5       30.05F WCI  -8
FLAG ISLAND    CLOUDY     7   3  85 SE8       30.03F WCI  -6
INTL FALLS     CLOUDY     0  -4  83 CALM      30.07F
WASKISH        FLURRIES   3   0  85 SE5       30.07F WCI  -6
LONGVILLE      CLOUDY     1   0  92 CALM      30.11F
GRAND RAPIDS   LGT SNOW   2  -2  83 CALM      30.13F FOG
CRANE LAKE     CLOUDY    -2  -6  84 CALM      30.12F
ORR            CLOUDY    -2  -6  84 CALM      30.06F
COOK           CLOUDY     0  -4  85 CALM      30.09F
WALKER         CLOUDY     5   2  86 CALM      30.09F
$$
MNZ012-019>021-037-121500-
   Northeast Minnesota

CITY           SKY/WX    TMP DP  RH WIND       PRES   REMARKS
DULUTH         CLOUDY     0  -3  87 NW8       30.10S WCI -14
ELY            CLOUDY    -9 -13  84 CALM      30.07F
HIBBING        CLOUDY    -2  -5  87 CALM      30.10F
EVELETH        CLOUDY    -3  -8  78 W3        30.11S
DULUTH HARBOR  CLOUDY     5   0  78 W8        30.19S WCI  -8
TWO HARBORS    CLOUDY     1  -2  85 W6        30.09F WCI -10
SILVER BAY     CLOUDY    -2  -6  84 CALM      30.09F
GRAND MARAIS     N/A     -3  -8  79 W3        30.13F
G MARAIS ARPRT CLEAR     -8 -13  77 NW5       29.98S WCI -19
$$
MNZ029>031-032-039>041-046>048-054>057-064-121500-
   West Central Minnesota

CITY           SKY/WX    TMP DP  RH WIND       PRES   REMARKS
FERGUS FALLS   CLOUDY    16  10  79 S9        30.16F WCI   4
WHEATON        CLOUDY    19  16  86 S9        30.15F WCI   9
MORRIS         CLOUDY    16  10  79 S8        30.14F WCI   5
ALEXANDRIA     CLOUDY    12   8  84 SW8       30.13F WCI   0
ELBOW LAKE     CLOUDY    15  11  85 S8        30.14F WCI   3
WADENA         CLOUDY    10   7  85 CALM      30.10F
GLENWOOD       CLOUDY    12   9  85 SW6       30.14F WCI   3
APPLETON       CLOUDY    18  12  79 S6        30.17F WCI   9
BENSON         CLOUDY    12   9  85 SW6       30.17F WCI   3
ORTONVILLE     CLOUDY    18  12  79 CALM      30.15F
MADISON        CLOUDY    19  18  93 S3        30.17F
WILLMAR        CLOUDY    14  10  85 SW3       30.18F
$$
MNZ033>034-036-042>043-049>051-058-059-121500-
   Central Minnesota

CITY           SKY/WX    TMP DP  RH WIND       PRES   REMARKS
ST CLOUD       CLOUDY     9   4  80 NW5       30.18F WCI   1
SAUK CENTRE    CLOUDY    11   7  81 SW3       30.15F
PAYNESVILLE    CLOUDY    12   8  84 SW5       30.17F WCI   4
AITKIN         MOCLDY     0  -4  85 CALM      30.13F
PINE RIVER     CLOUDY     1  -2  85 CALM      30.15F
BRAINERD       CLOUDY     3  -1  83 S5        30.14F WCI  -6
STAPLES        CLOUDY     7   3  85 CALM      30.12F
LONG PRAIRIE   CLOUDY    10   5  79 S5        30.14F WCI   2
LITTLE FALLS   CLOUDY     7   0  72 CALM      30.16F
LITCHFIELD     CLOUDY    12   7  79 W3        30.18F
BUFFALO        CLOUDY    10   4  76 W5        30.21F WCI   2
MAPLE LAKE     CLOUDY    11   6  80 W3        30.20F
HUTCHINSON     CLOUDY    11   7  82 W7        30.19F WCI   0
$$
MNZ037-044-045-052-053-121500-
   East Central Minnesota

CITY           SKY/WX    TMP DP  RH WIND       PRES   REMARKS
PRINCETON      CLOUDY     5   1  85 CALM      30.19S
MORA           CLOUDY     1  -4  78 CALM      30.19F
CAMBRIDGE      FLURRIES   3  -4  72 W3        30.20F
RUSH CITY      CLOUDY     1  -3  87 CALM      30.20R
MOOSE LAKE     CLOUDY     1  -4  78 CALM      30.15S
HINCKLEY       FAIR       3   0  85 CALM      30.17F
CLOQUET        CLOUDY     0  -4  85 W6        30.12F WCI -12
MCGREGOR       MOCLDY     1  -2  85 SW3       30.15F
$$
MNZ071>073-080-081-089-090-097-098-121500-
   Southwest Minnesota

CITY           SKY/WX    TMP DP  RH WIND       PRES   REMARKS
MONTEVIDEO     CLOUDY    14  10  85 SW5       30.18F WCI   6
GRANITE FALLS  CLOUDY    14  11  87 S6        30.21F WCI   5
CANBY          CLOUDY    22  18  84 SW13G18   30.18F WCI  10
MARSHALL       CLOUDY    19  14  81 SW8       30.19F WCI   9
REDWOOD FALLS  CLOUDY    14   8  77 W5        30.21F WCI   6
OLIVIA         PTCLDY    16  12  86 SW5       30.19F WCI   9
PIPESTONE      CLOUDY    12  10  92 NW3       30.19F
WINDOM         CLEAR     10   0  61 SW3       30.21F
WORTHINGTON    CLOUDY    11   8  88 W9        30.21F WCI  -2
JACKSON        CLOUDY    12   9  85 MISG      30.21F
TRACY          CLOUDY    17  13  86 SW8       30.18F WCI   6
SLAYTON        CLOUDY    15  11  86 W6        30.19F WCI   6
$$
MNZ065>067-074>077-082>085-091>093-121500-
   South Central Minnesota

CITY           SKY/WX    TMP DP  RH WIND       PRES   REMARKS
MANKATO        PTCLDY     9   4  80 NW7       30.21  WCI  -2
NEW ULM        PTCLDY    10   5  79 W7        30.21F WCI   0
ST JAMES       PTCLDY    10   7  85 W5        30.22F WCI   2
FAIRMONT       PTCLDY    11   7  84 NW9       30.23F WCI  -2
GLENCOE        CLOUDY    12   7  78 W5        30.20F WCI   4
FARIBAULT      CLOUDY     9   3  78 W5        30.20F WCI   0
OWATONNA       CLOUDY     9   3  78 W9        30.19F WCI  -5
WASECA         MOCLDY    10   5  79 NW5       30.22F WCI   2
ALBERT LEA     CLOUDY     9   1  72 NW5       30.20S WCI   0
$$
MNZ078>079-086>088-094>096-121500-
   Southeast Minnesota

CITY           SKY/WX    TMP DP  RH WIND       PRES   REMARKS
ROCHESTER      CLOUDY     4   2  91 NW8       30.17F WCI  -9
RED WING       CLOUDY     7   0  72 NW3       30.21S
STANTON        CLOUDY     7   2  81 SW3       30.20S
DODGE CENTER   CLOUDY     7   1  78 W6        30.17S WCI  -3
WINONA           N/A     10   7  85 NW5       30.21S WCI   2
AUSTIN         CLOUDY     9   3  78 NW8       30.18F WCI  -4
PRESTON        PTCLDY     7   3  85 NW8       30.16F WCI  -6
$$
ABBREVIATIONS USED IN REMARKS
   TC - TEMPERATURES IN CELSIUS
  WCI - WIND CHILL INDEX
   HX - HEAT INDEX
  VSB - VISIBILITY
$$




USA.gov is the U.S. government's official web portal to all federal, state and local government web resources and services.